Location: Doschendorf
(50.0069°N, 11.0602°E)
Time: 11:33:49
(UTC+00:00)

NOAA 12 - Pass Details

Date: 29 February 2020
Orbit: 795 x 815 km, 98.5° (Epoch: 07 April)

Event Time Altitude Azimuth Distance (km) Brightness Sun altitude
Rises 18:22:47 0° 213° (SSW) 3,319 7.7 -14.6°
Reaches altitude 10° 18:25:59 10° 233° (SW) 2,397 7.2 -15.1°
Maximum altitude 18:29:19 17° 272° (W) 1,972 7.3 -15.6°
Drops below altitude 10° 18:32:41 10° 312° (NW) 2,414 7.4 -16.1°
Sets 18:35:57 0° 333° (NNW) 3,354 7.8 -16.7°
